Dewpoint
27 29 27 24 23 21 19 19 22 23 23 23 24 26 31 32 31 31 32 34 35 36 38 38 38 36 31 29 29 28 28 28 28 28 28 28 27 26 26 25 24 24 24 24
26 27 27 26 25 23 22 20 19 18 17 19 22 27 32 30 30 30 29 29 27 29 39 38 38 36 31 29 29 29 28 28 30 29 29 28 26 26 25 25 25 25 25 25
21 25 26 22 26 25 23 22 20 17 19 20 18 20 28 30 37 39 40 39 30 37 39 38 38 36 31 30 31 29 29 30 29 29 29 28 26 25 24 24 25 25 25 26
22 23 14 17 23 25 22 21 22 21 21 21 26 34 36 37 36 38 40 40 38 39 40 39 39 36 33 30 30 30 30 29 28 28 28 28 27 26 25 24 24 24 26 26
20 17 18 19 18 19 19 19 25 26 27 32 37 37 37 38 37 38 41 42 39 40 40 40 39 36 32 31 31 29 29 28 27 27 27 28 27 25 24 23 24 25 26 21
23 18 12 17 22 26 22 17 32 30 30 31 31 25 29 37 36 38 40 40 39 39 42 41 39 35 33 31 31 29 29 29 27 26 25 27 27 26 24 23 25 26 20 20
23 21 22 25 28 27 16 16 33 34 34 33 28 29 33 38 38 40 42 42 40 40 41 41 38 36 33 32 31 30 30 29 27 26 26 27 27 26 25 26 26 25 21 20
22 18 18 31 28 23 25 34 34 33 31 32 32 35 34 35 36 38 40 40 39 38 40 40 38 36 34 32 32 30 28 27 26 26 26 28 28 30 29 27 25 23 19 18
23 25 32 34 32 33 32 29 33 31 32 33 33 33 34 35 35 36 39 39 35 37 38 38 38 36 33 32 30 29 28 27 27 27 28 29 30 28 26 25 23 21 18 17
23 30 31 33 35 35 33 32 31 34 32 30 31 30 28 34 35 35 38 39 34 35 35 35 35 33 31 31 30 29 29 29 29 28 27 27 26 25 25 24 24 21 21 20
28 29 31 33 33 30 25 26 26 27 28 28 29 28 27 31 35 37 39 35 33 34 34 33 31 30 31 31 31 30 30 30 29 27 24 25 24 24 24 25 24 23 23 22
26 27 28 23 23 23 24 23 23 26 25 29 32 32 33 34 36 38 40 37 33 32 33 30 30 29 30 31 31 31 30 28 26 23 23 23 23 24 25 24 25 25 24 23
24 25 29 28 27 27 26 23 21 20 20 23 25 30 34 36 37 38 39 39 36 31 31 30 30 29 29 31 31 31 28 26 24 22 23 24 24 23 23 25 26 25 25 25
25 33 30 31 32 33 32 29 21 20 20 20 20 27 35 38 41 40 41 39 33 31 29 29 30 29 30 32 32 31 26 25 23 23 24 24 25 24 24 23 23 24 27 26
36 36 36 37 35 33 32 27 20 21 22 22 28 33 38 39 39 39 39 36 35 33 29 27 27 27 31 32 31 27 25 25 25 25 25 25 25 24 23 23 24 24 25 26
34 34 36 35 36 37 30 24 22 22 24 25 33 36 38 39 38 39 39 38 32 31 30 28 26 26 29 31 28 26 25 25 25 25 25 24 24 24 23 22 22 23 23 23
33 32 34 36 37 37 36 37 36 36 36 35 35 37 39 39 38 38 40 36 32 31 30 29 27 27 28 28 27 26 26 26 25 25 25 25 24 24 23 22 21 21 21 22
34 33 34 36 36 38 36 35 34 34 33 33 33 37 37 37 36 34 33 31 28 27 27 27 27 27 28 27 27 27 27 26 25 25 25 25 25 25 24 23 23 22 21 20
33 32 33 35 36 37 35 33 32 31 31 31 32 33 34 33 34 31 29 28 27 25 25 26 27 27 27 28 28 27 27 26 26 25 25 25 25 25 24 24 23 23 23 22
33 31 32 33 33 33 33 33 33 32 32 31 31 30 30 30 30 29 29 28 28 27 27 27 27 28 28 28 27 27 27 26 25 25 24 24 23 24 24 24 24 25 25 24
31 31 30 30 31 32 32 33 33 33 33 33 32 31 31 32 32 32 31 30 30 29 27 27 27 28 28 27 27 27 26 26 26 25 24 23 24 24 24 24 24 24 25 26
32 31 30 29 30 31 31 31 32 33 32 32 32 32 31 30 30 29 30 31 30 31 28 27 28 29 28 28 27 26 26 26 26 26 25 25 25 25 25 25 25 25 26 24
29 31 31 30 29 29 28 28 29 31 32 32 31 31 30 30 29 29 29 29 30 29 28 27 27 28 29 29 28 27 26 26 26 26 26 26 26 26 26 26 26 25 22 21
29 29 30 32 31 30 30 28 28 28 29 30 31 31 30 29 27 27 27 28 29 28 27 27 26 27 29 29 29 28 27 26 26 26 26 26 26 25 25 24 23 21 20 18
28 28 29 30 31 32 33 28 26 27 28 28 29 29 29 28 27 26 27 27 27 27 27 27 26 26 28 29 29 28 28 27 27 26 26 26 25 24 22 21 20 18 17 16
30 30 30 31 31 32 34 29 25 26 27 27 27 26 26 26 26 26 26 26 26 26 27 28 28 29 29 28 28 28 27 26 26 25 23 22 21 20 18 17 16 15 14 13
31 31 30 30 32 33 33 33 29 26 26 27 27 28 26 25 25 25 25 25 26 27 28 28 28 28 27 27 26 26 25 23 22 20 19 18 17 17 16 15 13 12 10 9
Wind_Speed
30 25 23 20 26 28 24 21 16 18 23 38 18 20 12 10 15 22 19 23 32 26 28 26 24 23 23 25 26 26 26 26 25 26 22 18 16 14 16 16 14 16 17 16
33 27 25 30 38 31 29 31 24 26 37 26 17 18 17 27 20 22 27 30 33 33 28 26 28 28 27 26 25 24 24 21 20 21 27 22 20 15 15 16 14 15 15 16
8 7 8 15 32 24 29 26 23 27 33 22 15 15 12 17 10 5 6 12 17 22 28 29 30 30 30 28 25 25 25 23 23 22 21 22 20 18 15 18 16 15 16 15
10 6 17 10 6 21 25 23 16 20 23 18 7 8 11 4 3 2 2 5 7 10 18 25 25 25 25 26 27 27 25 25 24 23 21 21 20 18 17 16 17 17 16 13
9 13 16 19 19 10 14 7 7 15 8 5 12 6 5 2 5 5 5 4 4 2 14 21 23 27 28 25 26 25 25 25 25 25 23 21 20 19 17 17 16 16 14 15
10 9 9 6 2 9 1 6 11 9 11 10 13 6 4 3 4 2 2 2 5 11 8 22 22 26 29 28 27 27 25 25 24 23 24 23 21 20 18 17 17 15 16 15
15 9 9 8 7 4 7 7 2 12 5 5 3 4 5 6 3 3 5 5 3 3 9 18 24 27 27 26 27 23 22 23 22 21 22 21 19 19 17 16 17 17 15 13
5 6 7 7 6 1 3 5 7 7 7 8 8 10 7 5 1 1 2 3 4 9 15 15 21 23 23 23 22 23 23 23 23 22 21 20 22 17 15 19 21 18 17 14
8 4 6 4 15 16 6 4 11 9 9 15 15 13 11 8 7 5 4 6 7 14 19 16 19 21 23 20 24 24 23 23 22 22 20 21 20 18 20 20 19 18 17 16
16 7 11 9 13 25 15 14 10 15 13 16 18 13 12 12 10 3 2 8 13 16 19 18 17 18 20 24 25 25 24 23 22 21 19 17 17 19 20 20 19 19 17 15
11 20 20 16 22 23 6 8 7 9 8 10 16 16 16 14 13 11 7 9 16 19 20 19 19 21 23 23 24 23 22 22 21 18 21 18 17 18 18 17 23 21 17 18
5 24 20 11 9 7 8 10 5 7 7 12 16 19 16 16 16 14 14 14 16 12 19 19 21 21 22 23 24 24 22 20 20 19 17 16 17 11 12 21 19 18 21 21
21 21 21 12 11 11 14 18 14 13 11 10 12 13 10 14 11 10 14 18 20 22 20 21 22 22 21 22 22 22 21 20 18 18 16 17 16 17 15 6 14 18 21 20
19 13 11 13 17 21 22 22 17 11 11 11 9 7 10 7 3 5 13 17 19 21 20 21 22 21 22 22 21 20 19 21 19 17 17 16 16 16 16 17 17 13 15 18
15 12 12 17 16 19 18 14 9 12 11 7 5 10 12 11 9 9 14 14 16 19 20 21 21 20 20 20 21 21 21 19 17 17 17 17 16 16 15 15 15 14 11 9
11 11 14 15 17 19 12 12 1 4 4 4 8 15 16 15 16 15 16 12 17 18 19 20 21 21 21 21 21 19 20 22 19 18 17 17 16 16 14 14 15 15 14 13
13 19 19 21 19 18 12 10 10 8 5 5 5 10 14 15 14 15 15 17 13 17 20 23 21 20 21 22 21 18 17 19 21 17 17 18 17 17 16 16 16 15 15 15
12 12 12 13 14 13 13 13 12 11 9 11 8 11 17 19 19 16 17 16 16 14 12 18 21 21 21 22 20 17 17 17 17 18 16 17 17 16 16 16 16 15 13 15
12 14 14 14 15 12 10 11 10 9 9 9 7 2 8 12 16 17 17 19 20 19 12 18 22 22 20 20 20 17 17 17 15 15 16 16 16 15 16 16 15 14 14 14
12 12 12 12 12 11 9 8 7 10 9 7 7 9 11 11 13 15 13 12 12 13 15 18 19 19 19 19 19 17 18 18 17 16 16 16 17 17 16 16 15 15 15 14
12 12 12 13 13 11 9 8 7 9 8 7 8 9 12 13 14 15 17 15 9 15 17 17 16 15 15 17 16 16 16 16 16 16 16 16 16 15 15 15 15 14 14 13
13 11 12 11 11 11 10 9 7 5 6 6 6 8 10 10 11 10 6 12 12 16 14 14 14 18 17 18 15 15 15 15 15 15 15 15 14 15 14 13 14 13 12 11
12 13 14 13 11 10 9 7 6 5 1 3 4 6 7 8 9 13 12 8 11 14 14 15 16 20 22 15 15 15 15 16 16 15 14 14 14 14 14 14 12 11 12 12
12 13 15 13 12 10 12 7 4 3 3 3 2 4 8 9 6 1 4 14 14 16 15 16 18 20 18 15 15 15 14 14 15 14 14 14 13 13 12 13 13 12 12 12
11 11 11 13 13 11 12 5 3 1 2 3 4 5 7 6 6 7 11 13 15 14 14 16 18 19 15 14 14 14 14 14 14 13 13 13 13 13 13 13 14 14 13 12
12 11 11 11 10 10 11 6 7 5 5 3 1 3 5 5 7 11 11 13 13 13 12 13 14 13 12 13 14 14 14 14 14 14 15 14 14 14 14 13 13 13 13 12
11 11 11 11 10 9 10 9 10 11 12 11 9 6 4 5 9 11 13 14 14 14 12 12 13 14 14 14 14 14 13 13 14 15 14 14 13 14 14 14 13 13 14 15
Wind_Direction
255 252 263 272 279 273 274 271 252 267 243 257 240 242 226 194 240 270 240 212 231 238 206 188 182 176 172 167 165 163 159 158 158 147 137 131 129 132 129 128 129 133 135 135
253 247 252 260 253 252 262 266 271 269 268 266 254 223 187 238 241 249 270 255 239 226 203 188 180 181 173 165 164 160 158 156 149 149 141 146 144 146 136 131 140 141 148 145
281 258 287 269 252 247 255 257 250 255 256 275 260 247 215 219 180 189 326 344 267 197 191 184 184 178 172 166 157 156 154 151 149 151 150 149 147 148 155 149 153 152 155 155
270 279 266 262 257 218 234 246 249 254 259 272 228 137 133 175 174 110 323 9 20 211 203 196 175 166 158 157 158 157 156 153 152 154 154 149 149 154 161 163 162 165 166 165
241 252 279 301 276 245 238 272 297 282 232 150 137 115 105 80 46 86 39 349 335 265 206 175 166 160 155 155 157 157 161 160 161 158 159 158 162 164 166 167 166 172 166 160
215 233 255 177 107 313 110 265 359 348 150 153 141 178 225 203 148 124 68 60 342 330 179 156 154 157 157 159 161 166 166 165 163 159 162 168 166 166 168 174 169 165 163 164
238 250 264 277 322 347 256 266 89 86 73 159 150 190 180 186 204 234 254 253 246 106 173 168 151 155 164 163 168 162 159 156 158 164 161 162 159 164 167 165 156 160 160 156
257 245 282 240 342 162 230 156 156 145 156 266 200 176 165 163 220 293 233 236 233 144 129 131 145 150 157 163 156 153 154 155 160 160 153 153 155 152 162 156 152 152 150 151
277 303 360 22 295 326 238 185 211 215 210 221 204 199 186 189 205 242 175 205 161 146 136 141 155 156 153 152 150 152 151 151 154 158 155 163 165 165 159 147 154 154 159 157
316 356 322 21 321 288 264 232 248 229 220 204 207 211 206 205 202 200 302 178 156 149 144 149 150 146 144 145 147 149 152 154 155 157 157 166 169 165 155 160 156 166 165 163
284 286 296 240 241 257 220 224 198 196 205 203 208 223 223 216 206 203 182 155 160 163 157 154 144 141 144 145 148 151 154 156 158 159 166 162 166 164 164 167 170 169 174 168
300 305 289 289 301 275 240 235 212 222 243 235 218 225 228 226 214 200 192 172 162 166 150 146 141 143 146 147 150 151 154 155 160 164 161 158 156 148 164 170 176 175 167 170
293 289 288 306 332 325 313 286 242 231 236 234 229 232 229 226 212 218 210 194 178 161 151 147 146 146 149 150 151 155 155 159 160 158 153 154 158 158 161 158 182 174 174 177
299 314 310 330 311 302 298 289 260 232 203 219 235 229 213 189 154 264 249 195 158 142 140 143 146 151 153 153 152 155 154 157 157 159 156 153 153 156 157 165 181 199 197 187
341 326 315 311 311 309 286 290 233 203 217 241 225 190 168 157 134 115 105 113 135 142 150 147 150 154 154 154 152 151 148 154 154 151 155 153 151 157 162 163 169 172 150 162
350 350 342 342 345 348 355 3 339 297 263 276 196 183 178 162 153 150 141 154 155 161 156 155 161 162 156 154 154 152 155 161 159 159 157 158 160 164 165 165 164 166 168 170
1 357 348 349 358 1 19 21 22 12 1 37 258 199 169 162 161 174 170 169 171 167 165 162 168 159 156 156 157 160 161 166 163 161 164 167 169 174 175 173 176 180 186 178
353 349 344 347 344 355 2 12 11 7 5 327 337 185 171 174 177 164 160 149 143 134 153 161 157 155 156 157 156 158 159 164 166 170 164 165 174 174 173 176 180 181 185 190
3 356 351 351 351 357 4 4 5 1 359 2 29 123 189 176 165 158 151 150 155 157 160 148 147 147 149 151 149 149 153 156 159 163 167 164 163 169 172 174 178 182 181 181
357 2 2 353 352 3 8 15 18 30 28 35 69 82 96 101 121 125 132 130 141 141 144 141 137 139 143 146 143 147 152 157 160 164 166 171 172 175 179 181 183 185 186 187
348 357 354 350 343 350 3 2 24 38 25 48 81 91 95 97 98 109 113 118 111 135 136 140 140 141 146 144 140 146 151 155 160 167 173 178 180 184 187 190 194 192 191 191
341 348 346 339 340 343 351 353 5 30 63 71 88 107 114 115 116 101 92 145 148 149 156 155 153 151 151 146 148 155 159 164 167 167 173 178 185 190 194 194 197 194 187 173
346 340 337 341 336 331 331 347 351 337 350 129 138 145 149 156 156 148 149 155 152 167 167 166 158 154 156 153 153 160 166 172 174 176 180 183 186 187 187 186 179 169 160 157
345 346 339 340 334 327 325 316 325 320 289 286 212 175 168 171 185 185 146 164 171 173 173 167 165 161 159 159 159 165 171 172 175 179 181 179 178 174 168 160 153 148 147 141
339 335 337 336 337 328 317 282 281 279 262 246 236 229 208 192 198 186 159 164 165 166 169 171 170 166 160 158 159 163 165 166 167 163 160 157 155 151 148 147 149 148 141 142
326 330 328 326 314 322 321 256 248 211 175 166 121 130 131 137 140 145 147 148 150 149 150 154 153 147 147 151 152 152 152 151 148 147 145 142 140 139 140 133 134 137 139 141
329 329 330 328 329 326 318 310 247 229 203 188 183 165 138 143 148 150 149 150 149 144 140 139 145 145 143 142 141 137 131 129 133 134 132 133 132 132 133 134 136 136 136 138